sat.trackr.live / text

‹ back to catalog

STARLINK-34130

NORAD 64736 · 2025-144N

PAYLOAD ACTIVE UNKNOWN

§ Identity

Operator
Country
US
Launch date
2025-07-02
Launch site
AFETR
Launch vehicle
Mass (kg)
RCS (m²)

Purposes: comms

External: N2YO · Heavens-Above · Gunter

§ Orbital elements

Epoch: 2026-09-20T11:51:20.660832Z

Period
93.85 min
Inclination
53.1614°
Eccentricity
0.0001354
Mean motion
15.34397902 rev/d
Perigee alt
461.8 km
Apogee alt
463.6 km
Semi-major
6,840.8 km
B*
5.5512e-4
RAAN
353.6229°
Arg perigee
106.3289°
Mean anomaly
253.7863°
Rev number
6,957

§ Raw data

STARLINK-341301 64736U 25144N   26263.49398913  .00018424  00000+0  55512-3 0  99962 64736  53.1614 353.6229 0001354 106.3289 253.7863 15.34397902 69574

JSON: /api/v1/satellites/64736 · /tle

For live sub-satellite position, see the globe view (requires WebGL).

§ Visibility from observer

Set your observer location to see the next 7 days of passes ≥ 10°. The values pass through the URL so the page stays shareable.

No JS? Fill the form by hand. The geolocation button needs JavaScript.